EW0975 Weather Reports


Display with metric or nautical units.
time (UTC)temp
F
wind
direction
speed
MPH
gust
MPH
rain 1hr
in
rain 24hr
in
rain mn
in
humidity
%
barometer
mb
20180621104003 69 180 0.0 2.0 0.00 0.42 0.02 95 1007.0
20180621103503 69 180 1.0 2.0 0.00 0.42 0.02 95 1007.1
20180621103003 69 180 0.0 2.0 0.00 0.42 0.02 95 1007.2
20180621102504 70 180 1.0 2.0 0.00 0.42 0.02 95 1007.1
20180621102003 70 191 1.0 2.0 0.00 0.42 0.02 95 1007.1
20180621101503 70 215 1.0 2.0 0.00 0.43 0.02 94 1007.1
20180621101004 70 180 0.0 2.0 0.00 0.43 0.02 94 1007.2
20180621100503 70 0 0.0 0.0 0.00 0.43 0.02 94 1007.1
20180621100003 70 193 1.0 2.0 0.00 0.43 0.02 94 1007.1
20180621095504 70 205 1.0 2.0 0.00 0.43 0.02 94 1007.1
20180621095003 70 254 1.0 3.0 0.00 0.43 0.02 94 1006.9
20180621094503 70 254 2.0 4.0 0.00 0.43 0.02 94 1006.9
20180621094003 70 218 2.0 4.0 0.00 0.43 0.02 94 1007.4
20180621093503 70 196 1.0 3.0 0.00 0.43 0.02 94 1007.4
20180621093004 70 198 1.0 2.0 0.00 0.43 0.02 94 1007.3
20180621092503 70 191 1.0 3.0 0.00 0.43 0.02 94 1007.3
20180621092003 70 184 2.0 3.0 0.00 0.43 0.02 94 1007.5
20180621091503 70 182 2.0 3.0 0.00 0.43 0.02 94 1007.5
20180621091003 70 189 2.0 3.0 0.00 0.43 0.02 94 1007.2
20180621090504 70 206 2.0 4.0 0.00 0.43 0.02 94 1007.1
20180621090003 70 203 2.0 4.0 0.00 0.43 0.02 94 1007.3
20180621085503 70 206 2.0 4.0 0.00 0.43 0.02 94 1007.5
20180621085003 70 223 2.0 4.0 0.00 0.43 0.02 94 1007.4
20180621084503 71 188 2.0 5.0 0.00 0.43 0.02 94 1007.4
20180621084003 71 177 3.0 5.0 0.00 0.43 0.02 95 1007.3
20180621083503 71 174 2.0 5.0 0.00 0.43 0.02 94 1007.4
20180621083003 71 175 1.0 3.0 0.00 0.43 0.02 94 1007.5
20180621082503 71 187 1.0 3.0 0.00 0.43 0.02 94 1007.4
20180621082004 71 176 2.0 4.0 0.00 0.43 0.02 94 1007.6
20180621081503 71 176 3.0 4.0 0.00 0.43 0.02 94 1007.4
20180621081003 71 180 3.0 3.0 0.00 0.43 0.02 94 1007.8
20180621080503 71 180 3.0 6.0 0.00 0.43 0.02 95 1007.7
20180621080003 71 180 3.0 6.0 0.00 0.43 0.02 95 1007.6
20180621075503 70 181 2.0 4.0 0.00 0.43 0.02 94 1007.5
20180621075003 71 200 2.0 3.0 0.01 0.43 0.02 94 1007.7
20180621074503 71 222 1.0 3.0 0.01 0.43 0.02 94 1007.5
20180621074003 71 181 2.0 3.0 0.01 0.43 0.02 95 1007.7
20180621073503 70 163 2.0 3.0 0.01 0.43 0.02 95 1007.7
20180621073003 70 170 2.0 4.0 0.02 0.43 0.02 95 1007.5
20180621072503 70 178 3.0 5.0 0.02 0.43 0.02 96 1007.6
20180621072003 70 169 4.0 5.0 0.02 0.43 0.02 95 1007.9
20180621071503 70 174 3.0 5.0 0.02 0.43 0.02 95 1008.0
20180621071004 70 176 3.0 5.0 0.02 0.43 0.02 96 1007.8
20180621070503 70 176 4.0 5.0 0.02 0.43 0.02 96 1007.9
20180621070003 70 184 3.0 5.0 0.02 0.43 0.02 96 1007.7
20180621065503 70 176 4.0 5.0 0.02 0.43 0.02 96 1007.8
20180621065003 70 169 4.0 5.0 0.01 0.41 0.01 96 1007.8
20180621064503 70 177 3.0 5.0 0.01 0.41 0.01 96 1007.8
20180621064004 70 180 2.0 3.0 0.01 0.41 0.01 96 1007.8
20180621063503 70 168 2.0 3.0 0.00 0.40 0.00 96 1008.0
20180621063002 70 168 2.0 3.0 0.00 0.40 0.00 96 1008.2
20180621062503 70 131 2.0 3.0 0.00 0.40 0.00 96 1008.2
20180621062003 70 130 2.0 3.0 0.00 0.40 0.00 96 1008.2
20180621061504 71 166 2.0 3.0 0.00 0.40 0.00 96 1008.2
20180621061003 71 177 2.0 3.0 0.00 0.40 0.00 97 1008.2
20180621060503 71 180 3.0 4.0 0.00 0.40 0.00 96 1008.5
20180621060004 71 180 3.0 4.0 0.00 0.40 0.00 96 1008.4
20180621055503 71 180 2.0 3.0 0.00 0.40 0.00 96 1008.3
20180621055003 71 180 2.0 3.0 0.00 0.40 0.00 96 1008.5
20180621054504 71 180 1.0 3.0 0.00 0.40 0.00 96 1008.6
20180621054003 71 184 2.0 3.0 0.00 0.40 0.00 96 1008.5
20180621053503 71 188 1.0 3.0 0.00 0.40 0.00 96 1008.7
20180621053003 71 0 0.0 0.0 0.00 0.40 0.00 96 1008.7
20180621052503 71 0 0.0 0.0 0.00 0.40 0.00 96 1008.8
20180621052004 71 0 0.0 0.0 0.00 0.40 0.00 96 1008.6
20180621051503 71 0 0.0 0.0 0.00 0.40 0.00 96 1008.5
20180621051003 71 0 0.0 0.0 0.00 0.40 0.00 96 1008.7
20180621050504 71 0 0.0 0.0 0.00 0.40 0.00 96 1008.7
20180621050007 71 0 0.0 0.0 0.00 0.40 0.00 96 1008.6
20180621045503 71 0 0.0 0.0 0.00 0.40 0.40 96 1008.6
20180621045004 71 0 0.0 0.0 0.00 0.40 0.40 96 1008.7
20180621044503 71 0 0.0 0.0 0.00 0.40 0.40 96 1008.7
20180621044003 71 0 0.0 0.0 0.00 0.40 0.40 96 1008.8
20180621043503 71 0 0.0 0.0 0.00 0.40 0.40 96 1008.8
20180621043004 70 90 0.0 1.0 0.00 0.40 0.40 96 1008.8
20180621042503 70 90 0.0 1.0 0.00 0.40 0.40 96 1008.9
20180621042003 70 90 0.0 1.0 0.00 0.40 0.40 96 1008.7
20180621041503 71 180 0.0 1.0 0.00 0.40 0.40 96 1008.9
20180621041004 70 180 1.0 1.0 0.00 0.40 0.40 96 1008.8
20180621040503 70 126 1.0 2.0 0.00 0.40 0.40 97 1008.9
20180621040003 70 141 1.0 2.0 0.00 0.40 0.40 97 1008.9
20180621035503 70 175 2.0 3.0 0.00 0.40 0.40 97 1009.0
20180621035003 70 180 2.0 3.0 0.00 0.40 0.40 96 1009.2
20180621034503 70 180 1.0 3.0 0.00 0.40 0.40 96 1009.3
20180621034003 70 180 1.0 3.0 0.00 0.40 0.40 96 1009.3
20180621033503 71 180 1.0 3.0 0.00 0.40 0.40 96 1009.3
20180621033004 70 170 1.0 3.0 0.00 0.40 0.40 95 1009.2
20180621032504 70 179 1.0 2.0 0.00 0.40 0.40 95 1009.3
20180621032003 70 191 1.0 3.0 0.00 0.40 0.40 95 1009.4
20180621031503 71 180 1.0 3.0 0.00 0.40 0.40 95 1009.4
20180621031003 70 219 0.0 2.0 0.00 0.40 0.40 95 1009.3
20180621030503 70 286 1.0 3.0 0.00 0.40 0.40 96 1009.3
20180621030003 70 301 2.0 3.0 0.00 0.40 0.40 96 1009.4
20180621025504 70 199 1.0 3.0 0.00 0.40 0.40 96 1009.6
20180621025003 70 180 0.0 1.0 0.00 0.40 0.40 96 1009.3
20180621024503 70 180 0.0 1.0 0.00 0.40 0.40 96 1009.1
20180621024002 70 148 1.0 2.0 0.00 0.40 0.40 96 1009.1
20180621023502 70 137 2.0 3.0 0.00 0.40 0.40 96 1009.0
20180621023003 70 120 3.0 3.0 0.00 0.40 0.40 97 1009.1
20180621022503 70 122 3.0 6.0 0.00 0.40 0.40 97 1009.3
20180621022003 69 123 5.0 7.0 0.00 0.40 0.40 98 1009.0
20180621021503 69 123 6.0 7.0 0.01 0.40 0.40 98 1009.3
20180621021003 69 129 5.0 7.0 0.01 0.40 0.40 97 1009.0
20180621020503 70 123 3.0 7.0 0.02 0.40 0.40 97 1008.7
20180621020002 70 124 2.0 3.0 0.04 0.40 0.40 95 1008.7
20180621015503 70 116 2.0 3.0 0.07 0.40 0.40 95 1008.9
20180621015003 70 98 1.0 3.0 0.17 0.40 0.40 94 1009.0
20180621014502 70 0 0.0 0.0 0.33 0.40 0.40 94 1009.0
20180621005003 71 246 12.0 36.0 0.19 0.20 0.20 94 1010.2
20180621004003 74 219 14.0 36.0 0.01 0.02 0.02 86 1009.5
20180621003504 85 188 4.0 7.0 0.00 0.01 0.01 67 1009.4
20180621003003 85 180 4.0 7.0 0.00 0.01 0.01 67 1007.8
20180621002503 85 166 3.0 5.0 0.00 0.01 0.01 68 1007.8
20180621002003 84 139 3.0 5.0 0.00 0.01 0.01 69 1007.7
20180621001503 85 138 4.0 5.0 0.00 0.01 0.01 68 1007.5
20180621001003 85 153 4.0 6.0 0.00 0.01 0.01 67 1007.7
20180621000504 85 165 5.0 8.0 0.00 0.01 0.01 68 1007.7
20180621000003 85 161 5.0 8.0 0.00 0.01 0.01 67 1007.4
20180620235504 85 170 4.0 7.0 0.00 0.01 0.01 66 1007.5
20180620235003 85 179 6.0 8.0 0.00 0.01 0.01 66 1007.5
20180620234503 85 168 7.0 11.0 0.00 0.01 0.01 65 1007.5
20180620234003 85 145 8.0 11.0 0.00 0.01 0.01 65 1007.4
20180620233504 86 138 7.0 10.0 0.00 0.01 0.01 64 1007.5
20180620233003 87 149 6.0 11.0 0.00 0.01 0.01 63 1007.6
20180620232503 87 153 6.0 11.0 0.00 0.01 0.01 62 1007.7
20180620232003 87 170 7.0 11.0 0.00 0.01 0.01 62 1007.7
20180620231503 87 158 8.0 12.0 0.00 0.01 0.01 62 1007.8
20180620231003 87 163 10.0 13.0 0.00 0.01 0.01 60 1007.9
20180620230503 87 182 10.0 13.0 0.00 0.01 0.01 61 1007.9
20180620230003 87 177 10.0 13.0 0.00 0.01 0.01 61 1007.8
20180620225503 87 167 10.0 13.0 0.00 0.01 0.01 61 1007.6
20180620225004 87 173 9.0 12.0 0.00 0.01 0.01 61 1007.5
20180620224503 87 177 9.0 12.0 0.00 0.01 0.01 61 1007.3
20180620224003 87 176 10.0 13.0 0.00 0.01 0.01 61 1007.2
20180620223503 87 175 9.0 13.0 0.00 0.01 0.01 61 1007.4
20180620223003 88 160 8.0 13.0 0.00 0.01 0.01 61 1007.4
20180620222503 87 160 10.0 13.0 0.00 0.01 0.01 61 1007.5
20180620222003 87 169 11.0 15.0 0.00 0.01 0.01 60 1007.5
20180620221503 88 183 10.0 15.0 0.00 0.01 0.01 60 1007.5
20180620221004 87 188 11.0 15.0 0.00 0.01 0.01 61 1007.7
20180620220503 88 196 10.0 15.0 0.00 0.01 0.01 59 1007.3
20180620220003 87 190 10.0 12.0 0.00 0.01 0.01 60 1007.4
20180620215503 88 190 11.0 14.0 0.00 0.02 0.01 59 1007.3
20180620215003 88 190 12.0 14.0 0.00 0.03 0.01 60 1007.5
20180620214503 88 177 12.0 14.0 0.00 0.06 0.01 59 1007.6
20180620214003 88 182 11.0 14.0 0.00 0.08 0.01 59 1007.6
20180620213503 88 184 11.0 12.0 0.00 0.08 0.01 59 1007.7
20180620213003 88 165 9.0 11.0 0.00 0.08 0.01 60 1007.5
20180620212503 89 174 7.0 9.0 0.00 0.08 0.01 59 1007.6
20180620212003 89 182 7.0 9.0 0.00 0.08 0.01 59 1007.7
20180620211503 87 174 10.0 15.0 0.00 0.08 0.01 60 1007.9
20180620211003 87 175 11.0 15.0 0.00 0.08 0.01 58 1008.1
20180620210503 88 196 9.0 12.0 0.00 0.08 0.01 57 1008.1
20180620210003 88 195 9.0 12.0 0.00 0.08 0.01 58 1007.9
20180620205504 88 165 9.0 15.0 0.00 0.08 0.01 58 1008.0
20180620205003 87 153 9.0 15.0 0.00 0.08 0.01 58 1008.1
20180620202503 87 138 9.0 14.0 0.00 0.08 0.01 60 1008.3
20180620202004 88 141 8.0 13.0 0.00 0.08 0.01 62 1008.4
20180620201503 88 151 9.0 13.0 0.00 0.08 0.01 62 1008.5
20180620201003 87 144 9.0 11.0 0.00 0.08 0.01 63 1008.4
20180620200503 88 153 9.0 10.0 0.00 0.08 0.01 61 1008.4
20180620200004 87 175 8.0 10.0 0.00 0.08 0.01 63 1008.6
20180620195503 86 180 7.0 9.0 0.00 0.08 0.01 66 1008.6
20180620195003 87 177 8.0 9.0 0.00 0.08 0.01 67 1008.9
20180620194503 86 166 7.0 9.0 0.00 0.08 0.01 62 1008.8
20180620194004 86 167 7.0 9.0 0.00 0.08 0.01 64 1009.0
20180620193504 87 177 8.0 11.0 0.00 0.08 0.01 64 1009.3
20180620193003 87 175 8.0 11.0 0.00 0.08 0.01 67 1009.3
20180620192503 87 168 8.0 9.0 0.00 0.08 0.01 65 1009.3
20180620192004 88 159 8.0 11.0 0.00 0.08 0.01 65 1009.5
20180620191503 87 166 7.0 11.0 0.00 0.08 0.01 62 1010.0
20180620191003 87 184 6.0 10.0 0.00 0.08 0.01 63 1010.1
20180620190503 87 185 5.0 10.0 0.00 0.08 0.01 64 1010.1
20180620190003 88 186 6.0 9.0 0.00 0.08 0.01 61 1010.0
20180620185504 87 171 7.0 10.0 0.00 0.08 0.01 64 1010.0
20180620185004 87 168 7.0 10.0 0.00 0.08 0.01 66 1010.2
20180620184503 86 207 6.0 9.0 0.00 0.08 0.01 66 1010.2
20180620184004 88 206 7.0 11.0 0.00 0.08 0.01 68 1010.5
20180620183504 85 187 7.0 11.0 0.00 0.08 0.01 70 1010.2
20180620183003 85 174 6.0 7.0 0.00 0.08 0.01 67 1010.6
20180620182504 88 179 6.0 11.0 0.00 0.08 0.01 65 1010.5
20180620182003 87 171 7.0 11.0 0.00 0.08 0.01 67 1010.4
20180620181503 85 166 6.0 10.0 0.00 0.08 0.01 71 1010.4
20180620181003 88 264 5.0 9.0 0.00 0.08 0.01 70 1010.4
20180620180503 86 228 5.0 8.0 0.00 0.08 0.01 70 1010.6
20180620180003 85 199 6.0 8.0 0.00 0.08 0.01 68 1010.7
20180620175503 85 199 5.0 7.0 0.00 0.08 0.01 70 1010.7
20180620175003 86 187 5.0 6.0 0.00 0.08 0.01 67 1010.9
20180620174504 86 185 6.0 9.0 0.00 0.08 0.01 67 1010.8
20180620174003 85 184 7.0 11.0 0.00 0.08 0.01 71 1010.9
20180620173503 85 190 8.0 11.0 0.00 0.08 0.01 75 1010.8
20180620173003 83 194 6.0 9.0 0.00 0.08 0.01 75 1011.1
20180620172503 85 181 5.0 7.0 0.00 0.08 0.01 73 1011.1
20180620172003 85 187 5.0 7.0 0.00 0.08 0.01 73 1011.1
20180620171503 84 172 6.0 8.0 0.00 0.08 0.01 74 1011.0
20180620171131 84 177 6.0 8.0 0.00 0.08 0.01 74 1011.2
20180620170003 84 177 6.0 8.0 0.00 0.08 0.01 71 1011.1
20180620165504 84 166 6.0 8.0 0.00 0.08 0.01 74 1011.3
20180620163003 83 183 7.0 7.0 0.00 0.08 0.01 78 1011.4
20180620162503 83 181 7.0 9.0 0.00 0.08 0.01 77 1011.4
20180620162004 83 176 8.0 9.0 0.00 0.08 0.01 81 1011.4
20180620161503 82 180 7.0 9.0 0.00 0.08 0.01 80 1011.4
20180620161003 80 180 6.0 9.0 0.00 0.08 0.01 80 1011.5
20180620160503 79 174 6.0 9.0 0.00 0.08 0.01 83 1011.5
20180620160004 79 171 6.0 9.0 0.00 0.08 0.01 83 1011.4
20180620155503 79 181 5.0 7.0 0.00 0.08 0.01 84 1011.6
20180620155003 79 187 6.0 8.0 0.00 0.08 0.01 85 1011.6
20180620154504 78 191 6.0 8.0 0.00 0.08 0.01 86 1011.7
20180620154003 78 181 5.0 8.0 0.00 0.08 0.01 86 1011.5
20180620153503 77 167 5.0 8.0 0.00 0.08 0.01 90 1011.7
20180620153003 77 172 5.0 7.0 0.00 0.08 0.01 89 1011.5
20180620152503 78 178 4.0 6.0 0.00 0.08 0.01 88 1011.5
20180620152003 77 180 4.0 6.0 0.00 0.08 0.01 89 1011.4
20180620151503 77 170 4.0 5.0 0.00 0.08 0.01 88 1011.5
20180620151003 77 178 4.0 5.0 0.00 0.08 0.01 88 1011.7
20180620150504 77 200 3.0 7.0 0.00 0.08 0.01 88 1011.7
20180620150003 78 201 3.0 7.0 0.00 0.08 0.01 87 1011.7
20180620145503 77 186 3.0 5.0 0.00 0.08 0.01 88 1011.8
20180620145004 77 199 4.0 5.0 0.00 0.08 0.01 90 1011.9
20180620144504 77 205 4.0 5.0 0.00 0.08 0.01 89 1011.9
20180620144003 76 199 4.0 5.0 0.00 0.08 0.01 90 1011.8
20180620143503 76 198 4.0 5.0 0.00 0.08 0.01 90 1011.7
20180620143004 76 195 4.0 5.0 0.00 0.08 0.01 90 1011.7
20180620142503 76 194 4.0 5.0 0.00 0.08 0.01 90 1012.0
20180620142003 76 188 5.0 7.0 0.00 0.08 0.01 90 1011.9
20180620141503 76 185 4.0 7.0 0.00 0.08 0.01 87 1011.8
20180620141003 77 183 3.0 5.0 0.00 0.08 0.01 85 1012.0
20180620140503 76 183 3.0 6.0 0.00 0.08 0.01 87 1012.0
20180620140003 76 184 3.0 6.0 0.00 0.08 0.01 87 1012.1
20180620135503 77 167 3.0 5.0 0.00 0.08 0.01 88 1011.8
20180620135003 76 163 4.0 6.0 0.00 0.08 0.01 87 1011.7
20180620134503 77 168 5.0 9.0 0.00 0.08 0.01 87 1011.6
20180620134003 76 182 5.0 9.0 0.00 0.08 0.01 86 1012.0
20180620133503 77 209 4.0 6.0 0.00 0.08 0.01 84 1011.9
20180620133003 78 219 2.0 6.0 0.00 0.08 0.01 83 1012.1
20180620132503 79 212 3.0 5.0 0.00 0.08 0.01 82 1012.0
20180620132003 77 192 5.0 7.0 0.00 0.08 0.01 86 1011.9
20180620131503 77 164 3.0 7.0 0.00 0.08 0.01 86 1012.0
20180620131003 76 188 3.0 6.0 0.00 0.08 0.01 91 1012.0
20180620130504 75 195 5.0 7.0 0.00 0.08 0.01 91 1011.8
20180620130003 75 188 5.0 7.0 0.00 0.08 0.01 92 1012.0
20180620125503 74 173 4.0 7.0 0.00 0.08 0.01 93 1011.5
20180620125003 74 163 4.0 6.0 0.00 0.08 0.01 92 1011.8
20180620124503 74 164 4.0 6.0 0.00 0.08 0.01 92 1011.7
20180620124003 74 197 4.0 5.0 0.00 0.08 0.01 92 1011.9
20180620123503 74 233 3.0 5.0 0.00 0.08 0.01 92 1011.8
20180620123004 74 207 3.0 6.0 0.00 0.08 0.01 92 1011.9
20180620122503 74 147 3.0 6.0 0.00 0.08 0.01 92 1011.9
20180620122003 73 163 3.0 6.0 0.00 0.08 0.01 92 1011.9
20180620121504 73 190 4.0 5.0 0.00 0.08 0.01 93 1011.8
20180620121003 73 190 4.0 5.0 0.00 0.08 0.01 93 1011.5
20180620120503 73 181 3.0 3.0 0.00 0.08 0.01 94 1011.7
20180620120003 73 185 3.0 5.0 0.00 0.08 0.01 94 1011.7
20180620115504 73 186 4.0 5.0 0.00 0.08 0.01 94 1011.5
20180620115004 72 181 3.0 5.0 0.00 0.08 0.01 93 1011.6
20180620114503 72 183 3.0 3.0 0.00 0.08 0.01 94 1011.5
20180620114003 72 184 2.0 3.0 0.00 0.08 0.01 95 1012.0
20180620113504 72 180 2.0 3.0 0.00 0.08 0.01 95 1011.7
20180620113003 72 180 2.0 3.0 0.00 0.08 0.01 95 1011.9
20180620112503 72 180 3.0 3.0 0.00 0.08 0.01 95 1011.5
20180620112003 71 180 3.0 3.0 0.00 0.08 0.01 96 1011.6
20180620111504 71 179 2.0 3.0 0.01 0.08 0.01 96 1011.8
20180620111003 71 178 2.0 3.0 0.01 0.08 0.01 96 1011.9
20180620110503 72 169 2.0 3.0 0.01 0.08 0.01 95 1012.0
20180620110004 72 157 1.0 3.0 0.01 0.08 0.01 95 1011.9
20180620105503 72 173 1.0 2.0 0.01 0.08 0.01 95 1012.0
20180620105003 72 180 1.0 2.0 0.01 0.08 0.01 95 1012.0
20180620104504 72 180 2.0 3.0 0.01 0.08 0.01 95 1012.1